Regional Weather Roundup
Issued by NWS Northern Indiana

Home | Current Version | Previous Version | Graphics & Text | Print | Product List | Glossary On
Versions: 1 2 3 4 5 6 7 8 9 10 11 12 13 14 15 16 17 18 19 20 21 22 23 24 25 26 27 28 29 30 31 32 33 34 35 36 37 38 39 40 41 42 43 44 45 46 47 48 49 50
000
ASUS43 KIWX 011700
RWRIWX

KIWX WEATHER ROUNDUP
NATIONAL WEATHER SERVICE NORTHERN INDIANA
100 PM EDT WED OCT 01 2014

NOTE: "FAIR" INDICATES FEW OR NO CLOUDS BELOW 12,000 FEET WITH NO
SIGNIFICANT WEATHER AND/OR OBSTRUCTIONS TO VISIBILITY.

* THESE STATIONS ARE NOT UNDER NWS QUALITY CONTROL. THEY ALSO MAY NOT
  REPORT WEATHER SUCH AS PRECIPITATION OR FOG.

INZ001>027-011800-
NORTHERN INDIANA

CITY           SKY/WX    TMP DP  RH WIND       PRES   REMARKS
GARY*          SUNNY     64  50  59 SE9       30.02F
KNOX*          SUNNY     62  49  63 S6        30.03S
SOUTH BEND     NOT AVBL
ELKHART*       CLOUDY    59  48  67 E6        30.05F
WARSAW*        CLOUDY    59  50  72 SE5       30.06S
ANGOLA*        CLOUDY    59  48  67 SE6       30.07F
FORT WAYNE     PTSUNNY   60  51  72 S8        30.07S
PERU/GRISSOM   MOSUNNY   58  57  97 VRB6      30.04F

$$
INZ028>050-011800-
CENTRAL INDIANA

CITY           SKY/WX    TMP DP  RH WIND       PRES   REMARKS
LAFAYETTE      PTSUNNY   65  54  67 E6        30.01F
KOKOMO*        PTSUNNY   57  52  82 E7        30.05F
MUNCIE*        CLOUDY    59  51  75 VRB6      30.05F
INDIANAPOLIS   PTSUNNY   66  52  60 SE7       30.02S

$$
MIZ043>046-050>051-056>058-064>065-071>073-077>080-011800-
SOUTHWEST LOWER MICHIGAN

CITY           SKY/WX    TMP DP  RH WIND       PRES   REMARKS
BATTLE CREEK   CLOUDY    59  48  67 VRB5      30.07F
BENTON HARBOR  CLOUDY    59  48  67 E10       30.04F
COLDWATER*     CLOUDY    60  49  68 SE5       30.07F
HILLSDALE*     CLOUDY    61  49  64 S7        30.07S
GRAND RAPIDS   CLOUDY    59  52  77 SE8       30.06F
KALAMAZOO      CLOUDY    58  48  69 S10       30.07F
STURGIS*       CLOUDY    57  48  72 SE6       30.06F
THREE RIVERS*  CLOUDY    58  49  71 S8        30.07S

$$
OHZ001>008-015>018-024>025-011800-
NORTHWEST OHIO

CITY           SKY/WX    TMP DP  RH WIND       PRES   REMARKS
DEFIANCE       PTSUNNY   63  50  62 E6        30.07F
FINDLAY        CLOUDY    64  51  62 E3        30.05F
TOLEDO EXPRESS CLOUDY    62  50  64 VRB3      30.06F
TOLEDO METCALF CLOUDY    64  51  62 E6        30.07S
LIMA           CLOUDY    65  51  60 S3        30.06F

$$
AND FOR LAKE MICHIGAN COASTAL AND OPEN LAKE BUOY OBSERVATIONS

STATION/POSITION TEMP    WIND        PRES    VSBY  WAVE
                 AIR SEA DIR/SP/G                  HT/PER
                 (F)     (DEG/KT/KT) (MB)    (MI)  (FT/S)
CALUMET HARBOR    61     160/  8/ 10 1015.1F
MICHIGAN CITY     59     100/  7/ 11   N/A
SAINT JOSEPH      60     130/  1/  6 1017.3F
SOUTH LAKE BUOY   57 61  150/ 10/ 12 1017.6S         1/ 3
4 MI NW BRIDGMAN  59 62  110/  8/ 12   N/A           1/ 2
MICHIGAN CITY     61 64  140/  8/ 10   N/A           1/ 2
MICHIGAN CITY CG     70                N/A       6   1
SAINT JOSEPH CG                      1017.8      6   1

$$
&&


USA.gov is the U.S. government's official web portal to all federal, state and local government web resources and services.